sat.trackr.live / text

‹ back to catalog

STARLINK-3245

NORAD 50170 · 2021-125Q

PAYLOAD ACTIVE UNKNOWN

§ Identity

Operator
Country
US
Launch date
2021-12-18
Launch site
AFWTR
Launch vehicle
Mass (kg)
RCS (m²)

Purposes: comms

External: N2YO · Heavens-Above · Gunter

§ Orbital elements

Epoch: 2026-05-24T17:54:42.607872Z

Period
95.44 min
Inclination
53.2157°
Eccentricity
0.0001323
Mean motion
15.08837785 rev/d
Perigee alt
538.8 km
Apogee alt
540.7 km
Semi-major
6,917.9 km
B*
1.3480e-5
RAAN
267.6888°
Arg perigee
90.4069°
Mean anomaly
269.7075°
Rev number
24,807

§ Raw data

STARLINK-32451 50170U 21125Q   26144.74632648 -.00000073  00000+0  13480-4 0  99912 50170  53.2157 267.6888 0001323  90.4069 269.7075 15.08837785248079

JSON: /api/v1/satellites/50170 · /tle

For live sub-satellite position, see the globe view (requires WebGL).

§ Visibility from observer

Set your observer location to see the next 7 days of passes ≥ 10°. The values pass through the URL so the page stays shareable.

No JS? Fill the form by hand. The geolocation button needs JavaScript.